Regional Weather Roundup
Issued by NWS

Home | Current Version | Previous Version | Graphics & Text | Print | Product List | Glossary On
Versions: 1 2 3 4 5 6 7 8 9 10 11 12 13 14 15 16 17 18 19 20 21 22 23 24 25 26 27 28 29 30 31 32 33 34 35 36 37 38 39 40 41 42 43 44 45 46 47 48 49 50
000
ASUS43 KFSD 281802
RWRSD

WEATHER ROUNDUP FOR SOUTH DAKOTA
NATIONAL WEATHER SERVICE SIOUX FALLS SD
100 PM CDT WED JUN 28 2017

NOTE: "FAIR" INDICATES FEW OR NO CLOUDS BELOW 12,000 FEET WITH NO
SIGNIFICANT WEATHER AND/OR OBSTRUCTIONS TO VISIBILITY.


SDZ001>005-009-010-012>017-281900-
NORTHWEST AND NORTH CENTRAL SOUTH DAKOTA

CITY           SKY/WX    TMP DP  RH WIND       PRES   REMARKS
BUFFALO          N/A     79  35  20 NW16G22   29.72R
FAITH            N/A     80  38  22 NW16G22   29.74S
MOBRIDGE       SUNNY     81  43  26 NW20      29.65R
$$

SDZ012>016-024>037-041>051-057-063-072>074-281900-
SOUTHWEST AND SOUTH CENTRAL SOUTH DAKOTA

CITY           SKY/WX    TMP DP  RH WIND       PRES   REMARKS
RAPID CTY ARPT SUNNY     78  49  35 N12G17    29.79F
PIERRE         SUNNY     79  57  46 NW17G24   29.68R
CUSTER         MOSUNNY   74  39  28 NW12G18   29.90S
PHILIP         SUNNY     79  55  43 W8G22     29.74R
PINE RIDGE     SUNNY     78  52  40 NW10      29.82S
SPEARFISH      FAIR      73  46  38 NW6G14    29.84S
WINNER         FAIR      86  57  37 NW17G24   29.70R
$$

SDZ004>011-016>023-039-040-281900-
NORTHEAST SOUTH DAKOTA

CITY           SKY/WX    TMP DP  RH WIND       PRES   REMARKS
ABERDEEN       CLOUDY    76  63  64 NW10      29.59S
WATERTOWN      PTSUNNY   75  62  64 NW14      29.59R
BROOKINGS      MOSUNNY   78  64  61 W16       29.60R
SISSETON         N/A     74  64  71 NW22G31   29.51R
$$

SDZ017-020-022-023-036>040-048>070-281900-
SOUTHEAST SOUTH DAKOTA

CITY           SKY/WX    TMP DP  RH WIND       PRES   REMARKS
SIOUX FALLS    MOSUNNY   79  67  66 W12       29.62R
HURON          SUNNY     82  63  52 NW14G23   29.61R
CHAMBERLAIN    SUNNY     84  60  43 NW18G24   29.67S
MITCHELL       SUNNY     85  61  44 W13       29.62S
YANKTON        SUNNY     81  64  56 W13G18    29.64S
$$

ABBREVIATIONS USED IN REMARKS
   TC - TEMPERATURE IN CELSIUS
  WCI - WIND CHILL INDEX
   HX - HEAT INDEX
  VSB - VISIBILITY




USA.gov is the U.S. government's official web portal to all federal, state and local government web resources and services.